This demonstration page uses our WeatherBlox Daily Observations layout. Learn more.

Left ArrowRight Arrow

Hourly Observations for June 12, 2015

Temp ( °F °C ) Dew Point ( °F °C ) Humidity (%) Winds ( mph kmh ) Pressure ( in mb ) Visibility ( mi km ) Precip ( " mm )
12:54 am 00:54 Cloudy 63 17.2 59 15 87 87 N 15 24 29.81 1009 10 16 N/A
1:54 am 01:54 Cloudy 63 17.2 59 15 87 87 N 14 22 29.82 1010 10 16 N/A
2:54 am 02:54 Cloudy 63 17.2 59 15 87 87 N 10 17 29.82 1010 10 16 N/A
3:54 am 03:54 Cloudy 63 17.2 59 15 87 87 N 12 19 29.83 1010 10 16 N/A
4:47 am 04:47 Cloudy with Mist and Fog 62 16.7 59 15 90 90 N 12 19 29.83 1010 6 10 N/A
4:54 am 04:54 Cloudy with Mist and Fog 62 16.7 59 15 90 90 N 9 15 29.83 1010 5 8 N/A
5:05 am 05:05 Cloudy with Mist and Fog 62 16.7 60 15.6 93 93 NNW 10 17 29.83 1010 4 6 N/A
5:29 am 05:29 Cloudy with Mist and Fog 62 16.7 60 15.6 93 93 N 8 13 29.83 1010 6 10 N/A
5:54 am 05:54 Cloudy with Mist and Fog 62 16.7 60 15.6 93 93 NNW 8 13 29.85 1011 4 6 N/A
6:23 am 06:23 Cloudy with Mist and Fog 62 16.7 60 15.6 93 93 N 14 22 29.83 1010 3 4 N/A
6:38 am 06:38 Cloudy with Mist and Fog 61 16 61 16 100 100 N 13 20 29.85 1011 2 3 N/A
6:42 am 06:42 Cloudy with Mist and Fog 61 16 61 16 100 100 N 12 19 29.85 1011 2 3 N/A
6:46 am 06:46 Cloudy with Mist and Fog 61 16.1 60 15.6 97 97 N 10 17 29.85 1011 3 5 N/A
6:54 am 06:54 Cloudy with Mist and Fog 61 16.1 60 15.6 97 97 N 10 17 29.85 1011 5 8 N/A
7:41 am 07:41 Cloudy 63 17.2 60 15.6 90 90 N 9 15 29.85 1011 9 14 N/A
7:54 am 07:54 Cloudy with Mist and Fog 62 16.7 59 15 90 90 N 9 15 29.87 1012 6 10 N/A
8:43 am 08:43 Cloudy 64 17.8 59 15 84 84 N 10 17 29.85 1011 8 13 N/A
8:51 am 08:51 Cloudy 64 18 59 15 83 83 N 12 19 29.88 1012 8 13 N/A
8:54 am 08:54 Cloudy 64 17.8 59 15 84 84 N 10 17 29.88 1012 8 13 N/A
9:45 am 09:45 Cloudy 65 18.3 59 15 81 81 NNE 10 17 29.88 1012 10 16 N/A
9:54 am 09:54 Cloudy 65 18.3 59 15 81 81 NNE 10 17 29.90 1012 10 16 N/A
10:54 am 10:54 Cloudy 65 18.3 59 15 81 81 NE 7 11 29.90 1012 10 16 N/A
11:30 am 11:30 Cloudy 66 19 57 14 73 73 NNE 5 7 29.88 1012 10 16 N/A
11:54 am 11:54 Cloudy 66 18.9 58 14.4 75 75 NNW 8 13 29.89 1012 10 16 N/A
12:45 pm 12:45 Cloudy 66 18.9 59 15 78 78 NW 6 9 29.88 1012 10 16 N/A
12:54 pm 12:54 Cloudy 66 18.9 59 15 78 78 NNE 7 11 29.89 1012 10 16 N/A
1:20 pm 13:20 Cloudy 67 19.4 60 15.6 79 79 N 9 15 29.88 1012 10 16 N/A
1:54 pm 13:54 Cloudy 67 19.4 59 15 76 76 N 6 9 29.89 1012 10 16 N/A
2:54 pm 14:54 Cloudy 66 18.9 59 15 78 78 NW 8 13 29.89 1012 10 16 N/A
3:29 pm 15:29 Cloudy 67 19.4 59 15 76 76 NNE 5 7 29.88 1012 10 16 N/A
3:54 pm 15:54 Cloudy 67 19.4 59 15 76 76 N 3 6 29.90 1013 10 16 N/A
4:01 pm 16:01 Cloudy 67 19.4 59 15 76 76 N N/A 29.88 1012 10 16 N/A
4:54 pm 16:54 Cloudy 66 18.9 59 15 78 78 W 3 6 29.89 1012 10 16 N/A
5:54 pm 17:54 Cloudy 66 18.9 58 14.4 75 75 N N/A 29.89 1012 10 16 N/A
6:54 pm 18:54 Cloudy 67 19.4 59 15 76 76 N N/A 29.87 1012 10 16 N/A
7:43 pm 19:43 Cloudy 66 18.9 60 15.6 81 81 N N/A 29.85 1011 10 16 N/A
7:54 pm 19:54 Cloudy 66 18.9 60 15.6 81 81 N N/A 29.88 1012 10 16 N/A
8:54 pm 20:54 Cloudy 66 18.9 60 15.6 81 81 N N/A 29.88 1012 10 16 N/A
9:47 pm 21:47 Cloudy 65 18.3 60 15.6 84 84 N N/A 29.88 1012 10 16 N/A
9:54 pm 21:54 Cloudy 65 18.3 61 16.1 87 87 ESE 3 6 29.89 1012 10 16 N/A
10:30 pm 22:30 Cloudy 64 18 61 16 88 88 SSE 3 6 29.88 1012 10 16 N/A
10:54 pm 22:54 Mostly Cloudy 65 18.3 61 16.1 87 87 S 3 6 29.90 1013 10 16 N/A
11:23 pm 23:23 Cloudy 64 18 61 16 88 88 N N/A 29.88 1012 10 16 N/A
11:33 pm 23:33 Cloudy 65 18.3 61 16.1 87 87 N N/A 29.88 1012 10 16 N/A
11:54 pm 23:54 Cloudy 65 18.3 61 16.1 87 87 N N/A 29.89 1012 10 16 N/A

Powered by AerisWeather